Hourly Data Report for October 29, 2013

All times are specified in Local Standard Time (LST). Add 1 hour to adjust for Daylight Saving Time where and when it is observed.

PETAWAWA AWOS 2
ONTARIO

45°57'00.000" N
77°19'00.000" W
130.10 m
6106396
71625
YWA

Download Data

Hourly Data (October 2013)
Hourly Data Report for October 29, 2013
Temp Definition
°C
Dew Point Temp Definition
°C
Rel Hum Definition
%
Wind Dir Definition
10's deg

Wind Spd Definition
km/h
Visibility Definition
km
Stn Press Definition
kPa
Hmdx Definition


Wind Chill Definition


Weather Definition


TIME
00:00 -2.3 -5.8 77 27 6 15.0 101.51   -5  
01:00 -3.6 -6.3 82 26 6 15.0 101.53   -6  
02:00 -5.2 -6.4 91 22 4 15.0 101.53   -7  
03:00 -5.7 -6.8 92 23 4 15.0 101.55   -8  
04:00 -5.5 -6.4 93 23 4 15.0 101.57   -7  
05:00 -5.6 -6.8 91   0 15.0 101.60      
06:00 -4.5 -6.1 89   0 15.0 101.63      
07:00 -4.9 -6.2 91 23 6 15.0 101.63   -8  
08:00 -3.5 -5.2 88   0 15.0 101.65      
09:00 -1.9 -4.0 86 22 4 15.0 101.72   -3  
10:00 0.4 -5.8 63 25 7 15.0 101.69      
11:00 2.1 -5.7 56 21 9 15.0 101.61      
12:00 2.5 -6.8 50 33 7 15.0 101.53      
13:00 3.8 -6.4 47 26 4 15.0 101.38      
14:00 4.8 -6.6 43 28 6 15.0 101.35      
15:00 5.3 -7.1 40   0 15.0 101.26      
16:00 4.5 -6.9 43 21 4 15.0 101.24      
17:00 3.0 -6.6 49 15 6 15.0 101.17      
18:00 0.0 -6.3 63 17 4 15.0 101.14   -1  
19:00 -1.5 -5.5 74   0 15.0 101.14      
20:00 -1.1 -6.2 68   0 15.0 101.11      
21:00 -3.1 -5.0 87 23 4 15.0 101.07   -5  
22:00 -3.4 -5.6 85 19 4 15.0 101.05   -5  
23:00 -3.1 -5.1 86   0 15.0 100.97      

Notes on Data Quality.

Legend

  • E = Estimated
  • M = Missing
  • NA = Not Available
  • ‡ = Partner data that is not subject to review by the National Climate Archives
Date modified: